Year,Month,Day,Hour,Minute,Value (Times are PST for temperature in C)
2013,08,21,00,00,12.40
2013,08,21,00,01,12.30
2013,08,21,00,02,12.30
2013,08,21,00,03,12.30
2013,08,21,00,04,12.30
2013,08,21,00,05,12.30
2013,08,21,00,06,12.30
2013,08,21,00,07,12.20
2013,08,21,00,08,12.20
2013,08,21,00,09,12.20
2013,08,21,00,10,12.20
2013,08,21,00,11,12.20
2013,08,21,00,12,12.20
2013,08,21,00,13,12.20
2013,08,21,00,14,12.10
2013,08,21,00,15,12.10
2013,08,21,00,16,12.10
2013,08,21,00,17,12.10
2013,08,21,00,18,12.10
2013,08,21,00,19,12.10
2013,08,21,00,20,12.10
2013,08,21,00,21,12.10
2013,08,21,00,22,12.00
2013,08,21,00,23,12.00
2013,08,21,00,24,12.00
2013,08,21,00,25,12.00
2013,08,21,00,26,11.90
2013,08,21,00,27,11.90
2013,08,21,00,28,11.90
2013,08,21,00,29,11.90
2013,08,21,00,30,11.90
2013,08,21,00,31,11.90
2013,08,21,00,32,11.90
2013,08,21,00,33,11.90
2013,08,21,00,34,11.90
2013,08,21,00,35,11.90
2013,08,21,00,36,11.80
2013,08,21,00,37,11.80
2013,08,21,00,38,11.80
2013,08,21,00,39,11.80
2013,08,21,00,40,11.80
2013,08,21,00,41,11.80
2013,08,21,00,42,11.80
2013,08,21,00,43,11.80
2013,08,21,00,44,11.80
2013,08,21,00,45,11.80
2013,08,21,00,46,11.80
2013,08,21,00,47,11.70
2013,08,21,00,48,11.70
2013,08,21,00,49,11.70
2013,08,21,00,50,11.70
2013,08,21,00,51,11.70
2013,08,21,00,52,11.70
2013,08,21,00,53,11.70
2013,08,21,00,54,11.70
2013,08,21,00,55,11.70
2013,08,21,00,56,11.70
2013,08,21,00,57,11.70
2013,08,21,00,58,11.60
2013,08,21,00,59,11.60
2013,08,21,01,00,11.60
2013,08,21,01,01,11.60
2013,08,21,01,02,11.60
2013,08,21,01,03,11.60
2013,08,21,01,04,11.60
2013,08,21,01,05,11.60
2013,08,21,01,06,11.60
2013,08,21,01,07,11.60
2013,08,21,01,08,11.60
2013,08,21,01,09,11.60
2013,08,21,01,10,11.60
2013,08,21,01,11,11.60
2013,08,21,01,12,11.60
2013,08,21,01,13,11.60
2013,08,21,01,14,11.60
2013,08,21,01,15,11.60
2013,08,21,01,16,11.60
2013,08,21,01,17,11.60
2013,08,21,01,18,11.60
2013,08,21,01,19,11.60
2013,08,21,01,20,11.60
2013,08,21,01,21,11.60
2013,08,21,01,22,11.60
2013,08,21,01,23,11.50
2013,08,21,01,24,11.50
2013,08,21,01,25,11.50
2013,08,21,01,26,11.50
2013,08,21,01,27,11.40
2013,08,21,01,28,11.40
2013,08,21,01,29,11.40
2013,08,21,01,30,11.40
2013,08,21,01,31,11.40
2013,08,21,01,32,11.40
2013,08,21,01,33,11.40
2013,08,21,01,34,11.40
2013,08,21,01,35,11.40
2013,08,21,01,36,11.40
2013,08,21,01,37,11.40
2013,08,21,01,38,11.40
2013,08,21,01,39,11.40
2013,08,21,01,40,11.50
2013,08,21,01,41,11.50
2013,08,21,01,42,11.50
2013,08,21,01,43,11.50
2013,08,21,01,44,11.50
2013,08,21,01,45,11.50
2013,08,21,01,46,11.60
2013,08,21,01,47,11.60
2013,08,21,01,48,11.60
2013,08,21,01,49,11.60
2013,08,21,01,50,11.60
2013,08,21,01,51,11.60
2013,08,21,01,52,11.60
2013,08,21,01,53,11.60
2013,08,21,01,54,11.60
2013,08,21,01,55,11.60
2013,08,21,01,56,11.60
2013,08,21,01,57,11.60
2013,08,21,01,58,11.60
2013,08,21,01,59,11.60
2013,08,21,02,00,11.60
2013,08,21,02,01,11.60
2013,08,21,02,02,11.60
2013,08,21,02,03,11.60
2013,08,21,02,04,11.60
2013,08,21,02,05,11.60
2013,08,21,02,06,11.60
2013,08,21,02,07,11.60
2013,08,21,02,08,11.60
2013,08,21,02,09,11.60
2013,08,21,02,10,11.60
2013,08,21,02,11,11.50
2013,08,21,02,12,11.50
2013,08,21,02,13,11.50
2013,08,21,02,14,11.40
2013,08,21,02,15,11.40
2013,08,21,02,16,11.40
2013,08,21,02,17,11.40
2013,08,21,02,18,11.40
2013,08,21,02,19,11.40
2013,08,21,02,20,11.40
2013,08,21,02,21,11.40
2013,08,21,02,22,11.40
2013,08,21,02,23,11.40
2013,08,21,02,24,11.40
2013,08,21,02,25,11.40
2013,08,21,02,26,11.40
2013,08,21,02,27,11.40
2013,08,21,02,28,11.30
2013,08,21,02,29,11.30
2013,08,21,02,30,11.30
2013,08,21,02,31,11.30
2013,08,21,02,32,11.30
2013,08,21,02,33,11.30
2013,08,21,02,34,11.30
2013,08,21,02,35,11.30
2013,08,21,02,36,11.20
2013,08,21,02,37,11.20
2013,08,21,02,38,11.20
2013,08,21,02,39,11.20
2013,08,21,02,40,11.10
2013,08,21,02,41,11.10
2013,08,21,02,42,11.00
2013,08,21,02,43,11.00
2013,08,21,02,44,10.90
2013,08,21,02,45,10.90
2013,08,21,02,46,10.90
2013,08,21,02,47,10.90
2013,08,21,02,48,10.90
2013,08,21,02,49,10.90
2013,08,21,02,50,10.90
2013,08,21,02,51,10.90
2013,08,21,02,52,10.90
2013,08,21,02,53,10.90
2013,08,21,02,54,10.90
2013,08,21,02,55,10.90
2013,08,21,02,56,10.90
2013,08,21,02,57,10.90
2013,08,21,02,58,10.90
2013,08,21,02,59,10.90
2013,08,21,03,00,10.90
2013,08,21,03,01,10.90
2013,08,21,03,02,10.90
2013,08,21,03,03,10.90
2013,08,21,03,04,10.90
2013,08,21,03,05,10.80
2013,08,21,03,06,10.80
2013,08,21,03,07,10.80
2013,08,21,03,08,10.80
2013,08,21,03,09,10.80
2013,08,21,03,10,10.80
2013,08,21,03,11,10.70
2013,08,21,03,12,10.70
2013,08,21,03,13,10.70
2013,08,21,03,14,10.70
2013,08,21,03,15,10.70
2013,08,21,03,16,10.70
2013,08,21,03,17,10.70
2013,08,21,03,18,10.60
2013,08,21,03,19,10.60
2013,08,21,03,20,10.60
2013,08,21,03,21,10.60
2013,08,21,03,22,10.60
2013,08,21,03,23,10.60
2013,08,21,03,24,10.60
2013,08,21,03,25,10.60
2013,08,21,03,26,10.50
2013,08,21,03,27,10.50
2013,08,21,03,28,10.50
2013,08,21,03,29,10.50
2013,08,21,03,30,10.50
2013,08,21,03,31,10.50
2013,08,21,03,32,10.40
2013,08,21,03,33,10.40
2013,08,21,03,34,10.40
2013,08,21,03,35,10.40
2013,08,21,03,36,10.40
2013,08,21,03,37,10.40
2013,08,21,03,38,10.50
2013,08,21,03,39,10.50
2013,08,21,03,40,10.50
2013,08,21,03,41,10.50
2013,08,21,03,42,10.50
2013,08,21,03,43,10.50
2013,08,21,03,44,10.50
2013,08,21,03,45,10.40
2013,08,21,03,46,10.40
2013,08,21,03,47,10.40
2013,08,21,03,48,10.30
2013,08,21,03,49,10.30
2013,08,21,03,50,10.30
2013,08,21,03,51,10.30
2013,08,21,03,52,10.30
2013,08,21,03,53,10.30
2013,08,21,03,54,10.30
2013,08,21,03,55,10.30
2013,08,21,03,56,10.40
2013,08,21,03,57,10.40
2013,08,21,03,58,10.40
2013,08,21,03,59,10.40
2013,08,21,04,00,10.30
2013,08,21,04,01,10.30
2013,08,21,04,02,10.30
2013,08,21,04,03,10.30
2013,08,21,04,04,10.30
2013,08,21,04,05,10.30
2013,08,21,04,06,10.20
2013,08,21,04,07,10.20
2013,08,21,04,08,10.20
2013,08,21,04,09,10.20
2013,08,21,04,10,10.20
2013,08,21,04,11,10.20
2013,08,21,04,12,10.20
2013,08,21,04,13,10.20
2013,08,21,04,14,10.20
2013,08,21,04,15,10.20
2013,08,21,04,16,10.20
2013,08,21,04,17,10.20
2013,08,21,04,18,10.20
2013,08,21,04,19,10.10
2013,08,21,04,20,10.20
2013,08,21,04,21,10.20
2013,08,21,04,22,10.20
2013,08,21,04,23,10.20
2013,08,21,04,24,10.20
2013,08,21,04,25,10.20
2013,08,21,04,26,10.10
2013,08,21,04,27,10.10
2013,08,21,04,28,10.10
2013,08,21,04,29,10.10
2013,08,21,04,30,10.10
2013,08,21,04,31,10.10
2013,08,21,04,32,10.10
2013,08,21,04,33,10.10
2013,08,21,04,34,10.10
2013,08,21,04,35,10.10
2013,08,21,04,36,10.10
2013,08,21,04,37,10.10
2013,08,21,04,38,10.20
2013,08,21,04,39,10.20
2013,08,21,04,40,10.10
2013,08,21,04,41,10.10
2013,08,21,04,42,10.10
2013,08,21,04,43,10.10
2013,08,21,04,44,10.10
2013,08,21,04,45,10.10
2013,08,21,04,46,10.10
2013,08,21,04,47,10.10
2013,08,21,04,48,10.10
2013,08,21,04,49,10.10
2013,08,21,04,50,10.10
2013,08,21,04,51,10.10
2013,08,21,04,52,10.10
2013,08,21,04,53,10.10
2013,08,21,04,54,10.10
2013,08,21,04,55,10.10
2013,08,21,04,56,10.10
2013,08,21,04,57,10.10
2013,08,21,04,58,10.10
2013,08,21,04,59,10.20
2013,08,21,05,00,10.20
2013,08,21,05,01,10.20
2013,08,21,05,02,10.20
2013,08,21,05,03,10.20
2013,08,21,05,04,10.10
2013,08,21,05,05,10.10
2013,08,21,05,06,10.10
2013,08,21,05,07,10.10
2013,08,21,05,08,10.10
2013,08,21,05,09,10.10
2013,08,21,05,10,10.00
2013,08,21,05,11,10.00
2013,08,21,05,12,10.00
2013,08,21,05,13,10.00
2013,08,21,05,14,10.00
2013,08,21,05,15,10.00
2013,08,21,05,16,10.00
2013,08,21,05,17,10.00
2013,08,21,05,18,10.00
2013,08,21,05,19,10.00
2013,08,21,05,20,10.10
2013,08,21,05,21,10.10
2013,08,21,05,22,10.10
2013,08,21,05,23,10.10
2013,08,21,05,24,10.10
2013,08,21,05,25,10.10
2013,08,21,05,26,10.10
2013,08,21,05,27,10.10
2013,08,21,05,28,10.10
2013,08,21,05,29,10.10
2013,08,21,05,30,10.10
2013,08,21,05,31,10.00
2013,08,21,05,32,10.00
2013,08,21,05,33,10.00
2013,08,21,05,34,10.00
2013,08,21,05,35,10.00
2013,08,21,05,36,9.90
2013,08,21,05,37,9.90
2013,08,21,05,38,9.90
2013,08,21,05,39,9.90
2013,08,21,05,40,9.90
2013,08,21,05,41,9.90
2013,08,21,05,42,9.80
2013,08,21,05,43,9.80
2013,08,21,05,44,9.80
2013,08,21,05,45,9.80
2013,08,21,05,46,9.80
2013,08,21,05,47,9.80
2013,08,21,05,48,9.80
2013,08,21,05,49,9.80
2013,08,21,05,50,9.90
2013,08,21,05,51,9.90
2013,08,21,05,52,9.90
2013,08,21,05,53,9.90
2013,08,21,05,54,9.80
2013,08,21,05,55,9.80
2013,08,21,05,56,9.80
2013,08,21,05,57,9.80
2013,08,21,05,58,9.80
2013,08,21,05,59,9.80
2013,08,21,06,00,9.80
2013,08,21,06,01,9.80
2013,08,21,06,02,9.80
2013,08,21,06,03,9.80
2013,08,21,06,04,9.80
2013,08,21,06,05,9.80
2013,08,21,06,06,9.80
2013,08,21,06,07,9.80
2013,08,21,06,08,9.80
2013,08,21,06,09,9.80
2013,08,21,06,10,9.70
2013,08,21,06,11,9.70
2013,08,21,06,12,9.70
2013,08,21,06,13,9.70
2013,08,21,06,14,9.70
2013,08,21,06,15,9.70
2013,08,21,06,16,9.70
2013,08,21,06,17,9.70
2013,08,21,06,18,9.80
2013,08,21,06,19,9.70
2013,08,21,06,20,9.70
2013,08,21,06,21,9.70
2013,08,21,06,22,9.70
2013,08,21,06,23,9.60
2013,08,21,06,24,9.60
2013,08,21,06,25,9.60
2013,08,21,06,26,9.60
2013,08,21,06,27,9.60
2013,08,21,06,28,9.60
2013,08,21,06,29,9.60
2013,08,21,06,30,9.60
2013,08,21,06,31,9.60
2013,08,21,06,32,9.60
2013,08,21,06,33,9.60
2013,08,21,06,34,9.60
2013,08,21,06,35,9.60
2013,08,21,06,36,9.60
2013,08,21,06,37,9.50
2013,08,21,06,38,9.50
2013,08,21,06,39,9.50
2013,08,21,06,40,9.50
2013,08,21,06,41,9.50
2013,08,21,06,42,9.50
2013,08,21,06,43,9.50
2013,08,21,06,44,9.50
2013,08,21,06,45,9.50
2013,08,21,06,46,9.60
2013,08,21,06,47,9.60
2013,08,21,06,48,9.60
2013,08,21,06,49,9.60
2013,08,21,06,50,9.60
2013,08,21,06,51,9.60
2013,08,21,06,52,9.60
2013,08,21,06,53,9.60
2013,08,21,06,54,9.60
2013,08,21,06,55,9.60
2013,08,21,06,56,9.50
2013,08,21,06,57,9.50
2013,08,21,06,58,9.50
2013,08,21,06,59,9.50
2013,08,21,07,00,9.50
2013,08,21,07,01,9.50
2013,08,21,07,02,9.50
2013,08,21,07,03,9.50
2013,08,21,07,04,9.50
2013,08,21,07,05,9.50
2013,08,21,07,06,9.50
2013,08,21,07,07,9.50
2013,08,21,07,08,9.40
2013,08,21,07,09,9.40
2013,08,21,07,10,9.40
2013,08,21,07,11,9.40
2013,08,21,07,12,9.40
2013,08,21,07,13,9.40
2013,08,21,07,14,9.40
2013,08,21,07,15,9.40
2013,08,21,07,16,9.40
2013,08,21,07,17,9.40
2013,08,21,07,18,9.40
2013,08,21,07,19,9.40
2013,08,21,07,20,9.40
2013,08,21,07,21,9.40
2013,08,21,07,22,9.40
2013,08,21,07,23,9.40
2013,08,21,07,24,9.40
2013,08,21,07,25,9.40
2013,08,21,07,26,9.50
2013,08,21,07,27,9.50
2013,08,21,07,28,9.50
2013,08,21,07,29,9.50
2013,08,21,07,30,9.50
2013,08,21,07,31,9.50
2013,08,21,07,32,9.50
2013,08,21,07,33,9.60
2013,08,21,07,34,9.60
2013,08,21,07,35,9.60
2013,08,21,07,36,9.60
2013,08,21,07,37,9.60
2013,08,21,07,38,9.60
2013,08,21,07,39,9.60
2013,08,21,07,40,9.70
2013,08,21,07,41,9.70
2013,08,21,07,42,9.70
2013,08,21,07,43,9.70
2013,08,21,07,44,9.80
2013,08,21,07,45,9.80
2013,08,21,07,46,9.80
2013,08,21,07,47,9.80
2013,08,21,07,48,9.80
2013,08,21,07,49,9.80
2013,08,21,07,50,9.80
2013,08,21,07,51,9.80
2013,08,21,07,52,9.80
2013,08,21,07,53,9.80
2013,08,21,07,54,9.80
2013,08,21,07,55,9.90
2013,08,21,07,56,9.90
2013,08,21,07,57,9.90
2013,08,21,07,58,9.90
2013,08,21,07,59,9.90
2013,08,21,08,00,10.00
2013,08,21,08,01,10.00
2013,08,21,08,02,10.00
2013,08,21,08,03,10.10
2013,08,21,08,04,10.10
2013,08,21,08,05,10.10
2013,08,21,08,06,10.10
2013,08,21,08,07,10.10
2013,08,21,08,08,10.10
2013,08,21,08,09,10.10
2013,08,21,08,10,10.10
2013,08,21,08,11,10.20
2013,08,21,08,12,10.20
2013,08,21,08,13,10.20
2013,08,21,08,14,10.20
2013,08,21,08,15,10.20
2013,08,21,08,16,10.20
2013,08,21,08,17,10.20
2013,08,21,08,18,10.20
2013,08,21,08,19,10.20
2013,08,21,08,20,10.20
2013,08,21,08,21,10.20
2013,08,21,08,22,10.30
2013,08,21,08,23,10.30
2013,08,21,08,24,10.30
2013,08,21,08,25,10.30
2013,08,21,08,26,10.30
2013,08,21,08,27,10.30
2013,08,21,08,28,10.30
2013,08,21,08,29,10.30
2013,08,21,08,30,10.30
2013,08,21,08,31,10.40
2013,08,21,08,32,10.40
2013,08,21,08,33,10.50
2013,08,21,08,34,10.50
2013,08,21,08,35,10.60
2013,08,21,08,36,10.60
2013,08,21,08,37,10.70
2013,08,21,08,38,10.70
2013,08,21,08,39,10.70
2013,08,21,08,40,10.80
2013,08,21,08,41,10.80
2013,08,21,08,42,10.80
2013,08,21,08,43,10.80
2013,08,21,08,44,10.80
2013,08,21,08,45,10.90
2013,08,21,08,46,10.90
2013,08,21,08,47,10.90
2013,08,21,08,48,10.90
2013,08,21,08,49,11.00
2013,08,21,08,50,11.00
2013,08,21,08,51,11.10
2013,08,21,08,52,11.10
2013,08,21,08,53,11.10
2013,08,21,08,54,11.10
2013,08,21,08,55,11.20
2013,08,21,08,56,11.20
2013,08,21,08,57,11.20
2013,08,21,08,58,11.20
2013,08,21,08,59,11.30
2013,08,21,09,00,11.30
2013,08,21,09,01,11.30
2013,08,21,09,02,11.30
2013,08,21,09,03,11.30
2013,08,21,09,04,11.40
2013,08,21,09,05,11.40
2013,08,21,09,06,11.40
2013,08,21,09,07,11.50
2013,08,21,09,08,11.50
2013,08,21,09,09,11.60
2013,08,21,09,10,11.60
2013,08,21,09,11,11.60
2013,08,21,09,12,11.60
2013,08,21,09,13,11.70
2013,08,21,09,14,11.70
2013,08,21,09,15,11.70
2013,08,21,09,16,11.80
2013,08,21,09,17,11.80
2013,08,21,09,18,11.90
2013,08,21,09,19,11.90
2013,08,21,09,20,11.90
2013,08,21,09,21,11.90
2013,08,21,09,22,11.90
2013,08,21,09,23,12.00
2013,08,21,09,24,12.00
2013,08,21,09,25,12.10
2013,08,21,09,26,12.10
2013,08,21,09,27,12.10
2013,08,21,09,28,12.10
2013,08,21,09,29,12.10
2013,08,21,09,30,12.10
2013,08,21,09,31,12.10
2013,08,21,09,32,12.10
2013,08,21,09,33,12.20
2013,08,21,09,34,12.20
2013,08,21,09,35,12.20
2013,08,21,09,36,12.20
2013,08,21,09,37,12.30
2013,08,21,09,38,12.30
2013,08,21,09,39,12.30
2013,08,21,09,40,12.30
2013,08,21,09,41,12.40
2013,08,21,09,42,12.40
2013,08,21,09,43,12.40
2013,08,21,09,44,12.40
2013,08,21,09,45,12.50
2013,08,21,09,46,12.50
2013,08,21,09,47,12.50
2013,08,21,09,48,12.60
2013,08,21,09,49,12.60
2013,08,21,09,50,12.60
2013,08,21,09,51,12.60
2013,08,21,09,52,12.70
2013,08,21,09,53,12.70
2013,08,21,09,54,12.70
2013,08,21,09,55,12.70
2013,08,21,09,56,12.80
2013,08,21,09,57,12.80
2013,08,21,09,58,12.90
2013,08,21,09,59,13.00
2013,08,21,10,00,13.00
2013,08,21,10,01,13.10
2013,08,21,10,02,13.10
2013,08,21,10,03,13.20
2013,08,21,10,04,13.30
2013,08,21,10,05,13.40
2013,08,21,10,06,13.50
2013,08,21,10,07,13.60
2013,08,21,10,08,13.60
2013,08,21,10,09,13.70
2013,08,21,10,10,13.80
2013,08,21,10,11,13.90
2013,08,21,10,12,13.90
2013,08,21,10,13,14.00
2013,08,21,10,14,14.10
2013,08,21,10,15,14.10
2013,08,21,10,16,14.20
2013,08,21,10,17,14.30
2013,08,21,10,18,14.30
2013,08,21,10,19,14.40
2013,08,21,10,20,14.50
2013,08,21,10,21,14.50
2013,08,21,10,22,14.60
2013,08,21,10,23,14.60
2013,08,21,10,24,14.70
2013,08,21,10,25,14.80
2013,08,21,10,26,14.80
2013,08,21,10,27,14.90
2013,08,21,10,28,15.00
2013,08,21,10,29,15.00
2013,08,21,10,30,15.10
2013,08,21,10,31,15.20
2013,08,21,10,32,15.20
2013,08,21,10,33,15.30
2013,08,21,10,34,15.40
2013,08,21,10,35,15.40
2013,08,21,10,36,15.50
2013,08,21,10,37,15.60
2013,08,21,10,38,15.70
2013,08,21,10,39,15.70
2013,08,21,10,40,15.80
2013,08,21,10,41,15.90
2013,08,21,10,42,16.00
2013,08,21,10,43,16.10
2013,08,21,10,44,16.20
2013,08,21,10,45,16.30
2013,08,21,10,46,16.30
2013,08,21,10,47,16.40
2013,08,21,10,48,16.50
2013,08,21,10,49,16.60
2013,08,21,10,50,16.70
2013,08,21,10,51,16.70
2013,08,21,10,52,16.80
2013,08,21,10,53,16.90
2013,08,21,10,54,17.00
2013,08,21,10,55,17.00
2013,08,21,10,56,17.10
2013,08,21,10,57,17.20
2013,08,21,10,58,17.30
2013,08,21,10,59,17.30
2013,08,21,11,00,17.30
2013,08,21,11,01,17.40
2013,08,21,11,02,17.40
2013,08,21,11,03,17.50
2013,08,21,11,04,17.60
2013,08,21,11,05,17.70
2013,08,21,11,06,17.80
2013,08,21,11,07,17.80
2013,08,21,11,08,17.90
2013,08,21,11,09,18.00
2013,08,21,11,10,18.10
2013,08,21,11,11,18.20
2013,08,21,11,12,18.20
2013,08,21,11,13,18.30
2013,08,21,11,14,18.30
2013,08,21,11,15,18.40
2013,08,21,11,16,18.50
2013,08,21,11,17,18.60
2013,08,21,11,18,18.60
2013,08,21,11,19,18.70
2013,08,21,11,20,18.70
2013,08,21,11,21,18.80
2013,08,21,11,22,18.80
2013,08,21,11,23,18.80
2013,08,21,11,24,18.90
2013,08,21,11,25,18.90
2013,08,21,11,26,19.00
2013,08,21,11,27,19.10
2013,08,21,11,28,19.20
2013,08,21,11,29,19.20
2013,08,21,11,30,19.30
2013,08,21,11,31,19.40
2013,08,21,11,32,19.50
2013,08,21,11,33,19.60
2013,08,21,11,34,19.70
2013,08,21,11,35,19.80
2013,08,21,11,36,19.80
2013,08,21,11,37,19.90
2013,08,21,11,38,19.90
2013,08,21,11,39,19.90
2013,08,21,11,40,20.00
2013,08,21,11,41,20.10
2013,08,21,11,42,20.20
2013,08,21,11,43,20.20
2013,08,21,11,44,20.30
2013,08,21,11,45,20.30
2013,08,21,11,46,20.30
2013,08,21,11,47,20.40
2013,08,21,11,48,20.50
2013,08,21,11,49,20.50
2013,08,21,11,50,20.60
2013,08,21,11,51,20.70
2013,08,21,11,52,20.70
2013,08,21,11,53,20.80
2013,08,21,11,54,20.80
2013,08,21,11,55,20.90
2013,08,21,11,56,20.90
2013,08,21,11,57,20.90
2013,08,21,11,58,20.90
2013,08,21,11,59,20.90
2013,08,21,12,00,21.00
2013,08,21,12,01,21.00
2013,08,21,12,02,21.10
2013,08,21,12,03,21.20
2013,08,21,12,04,21.30
2013,08,21,12,05,21.40
2013,08,21,12,06,21.50
2013,08,21,12,07,21.60
2013,08,21,12,08,21.70
2013,08,21,12,09,21.70
2013,08,21,12,10,21.80
2013,08,21,12,11,21.80
2013,08,21,12,12,21.80
2013,08,21,12,13,21.80
2013,08,21,12,14,21.80
2013,08,21,12,15,21.80
2013,08,21,12,16,21.80
2013,08,21,12,17,21.90
2013,08,21,12,18,21.90
2013,08,21,12,19,22.00
2013,08,21,12,20,22.10
2013,08,21,12,21,22.10
2013,08,21,12,22,22.20
2013,08,21,12,23,22.30
2013,08,21,12,24,22.40
2013,08,21,12,25,22.50
2013,08,21,12,26,22.60
2013,08,21,12,27,22.70
2013,08,21,12,28,22.80
2013,08,21,12,29,22.90
2013,08,21,12,30,23.00
2013,08,21,12,31,23.10
2013,08,21,12,32,23.10
2013,08,21,12,33,23.20
2013,08,21,12,34,23.20
2013,08,21,12,35,23.30
2013,08,21,12,36,23.40
2013,08,21,12,37,23.40
2013,08,21,12,38,23.50
2013,08,21,12,39,23.60
2013,08,21,12,40,23.60
2013,08,21,12,41,23.70
2013,08,21,12,42,23.70
2013,08,21,12,43,23.80
2013,08,21,12,44,23.80
2013,08,21,12,45,23.90
2013,08,21,12,46,23.90
2013,08,21,12,47,24.00
2013,08,21,12,48,24.10
2013,08,21,12,49,24.20
2013,08,21,12,50,24.30
2013,08,21,12,51,24.30
2013,08,21,12,52,24.40
2013,08,21,12,53,24.40
2013,08,21,12,54,24.40
2013,08,21,12,55,24.40
2013,08,21,12,56,24.50
2013,08,21,12,57,24.50
2013,08,21,12,58,24.50
2013,08,21,12,59,24.50
2013,08,21,13,00,24.50
2013,08,21,13,01,24.40
2013,08,21,13,02,24.40
2013,08,21,13,03,24.30
2013,08,21,13,04,24.30
2013,08,21,13,05,24.30
2013,08,21,13,06,24.20
2013,08,21,13,07,24.20
2013,08,21,13,08,24.20
2013,08,21,13,09,24.20
2013,08,21,13,10,24.30
2013,08,21,13,11,24.40
2013,08,21,13,12,24.40
2013,08,21,13,13,24.40
2013,08,21,13,14,24.40
2013,08,21,13,15,24.40
2013,08,21,13,16,24.40
2013,08,21,13,17,24.30
2013,08,21,13,18,24.30
2013,08,21,13,19,24.30
2013,08,21,13,20,24.30
2013,08,21,13,21,24.40
2013,08,21,13,22,24.50
2013,08,21,13,23,24.50
2013,08,21,13,24,24.60
2013,08,21,13,25,24.70
2013,08,21,13,26,24.80
2013,08,21,13,27,24.90
2013,08,21,13,28,25.00
2013,08,21,13,29,25.10
2013,08,21,13,30,25.10
2013,08,21,13,31,25.20
2013,08,21,13,32,25.20
2013,08,21,13,33,25.20
2013,08,21,13,34,25.10
2013,08,21,13,35,25.00
2013,08,21,13,36,25.00
2013,08,21,13,37,24.90
2013,08,21,13,38,24.80
2013,08,21,13,39,24.80
2013,08,21,13,40,24.90
2013,08,21,13,41,24.80
2013,08,21,13,42,24.80
2013,08,21,13,43,24.80
2013,08,21,13,44,24.80
2013,08,21,13,45,24.80
2013,08,21,13,46,24.90
2013,08,21,13,47,24.90
2013,08,21,13,48,24.90
2013,08,21,13,49,25.00
2013,08,21,13,50,25.00
2013,08,21,13,51,25.00
2013,08,21,13,52,25.10
2013,08,21,13,53,25.10
2013,08,21,13,54,25.10
2013,08,21,13,55,25.20
2013,08,21,13,56,25.20
2013,08,21,13,57,25.20
2013,08,21,13,58,25.20
2013,08,21,13,59,25.20
2013,08,21,14,00,25.20
2013,08,21,14,01,25.20
2013,08,21,14,02,25.20
2013,08,21,14,03,25.20
2013,08,21,14,04,25.20
2013,08,21,14,05,25.20
2013,08,21,14,06,25.30
2013,08,21,14,07,25.30
2013,08,21,14,08,25.30
2013,08,21,14,09,25.30
2013,08,21,14,10,25.30
2013,08,21,14,11,25.30
2013,08,21,14,12,25.30
2013,08,21,14,13,25.30
2013,08,21,14,14,25.30
2013,08,21,14,15,25.30
2013,08,21,14,16,25.30
2013,08,21,14,17,25.30
2013,08,21,14,18,25.30
2013,08,21,14,19,25.20
2013,08,21,14,20,25.10
2013,08,21,14,21,25.10
2013,08,21,14,22,25.10
2013,08,21,14,23,25.10
2013,08,21,14,24,25.00
2013,08,21,14,25,25.00
2013,08,21,14,26,25.00
2013,08,21,14,27,25.00
2013,08,21,14,28,25.00
2013,08,21,14,29,24.90
2013,08,21,14,30,24.90
2013,08,21,14,31,24.80
2013,08,21,14,32,24.80
2013,08,21,14,33,24.90
2013,08,21,14,34,24.90
2013,08,21,14,35,24.90
2013,08,21,14,36,24.90
2013,08,21,14,37,24.90
2013,08,21,14,38,25.00
2013,08,21,14,39,25.00
2013,08,21,14,40,25.00
2013,08,21,14,41,25.10
2013,08,21,14,42,25.10
2013,08,21,14,43,25.10
2013,08,21,14,44,25.00
2013,08,21,14,45,25.00
2013,08,21,14,46,25.00
2013,08,21,14,47,25.00
2013,08,21,14,48,25.00
2013,08,21,14,49,25.00
2013,08,21,14,50,25.00
2013,08,21,14,51,24.90
2013,08,21,14,52,24.90
2013,08,21,14,53,24.80
2013,08,21,14,54,24.70
2013,08,21,14,55,24.70
2013,08,21,14,56,24.60
2013,08,21,14,57,24.50
2013,08,21,14,58,24.50
2013,08,21,14,59,24.60
2013,08,21,15,00,24.70
2013,08,21,15,01,24.70
2013,08,21,15,02,24.80
2013,08,21,15,03,24.80
2013,08,21,15,04,24.80
2013,08,21,15,05,24.80
2013,08,21,15,06,24.80
2013,08,21,15,07,24.80
2013,08,21,15,08,24.80
2013,08,21,15,09,24.80
2013,08,21,15,10,24.80
2013,08,21,15,11,24.80
2013,08,21,15,12,24.80
2013,08,21,15,13,24.80
2013,08,21,15,14,24.80
2013,08,21,15,15,24.80
2013,08,21,15,16,24.80
2013,08,21,15,17,24.80
2013,08,21,15,18,24.80
2013,08,21,15,19,24.90
2013,08,21,15,20,24.90
2013,08,21,15,21,24.90
2013,08,21,15,22,24.90
2013,08,21,15,23,24.90
2013,08,21,15,24,24.90
2013,08,21,15,25,24.90
2013,08,21,15,26,24.90
2013,08,21,15,27,24.80
2013,08,21,15,28,24.80
2013,08,21,15,29,24.70
2013,08,21,15,30,24.80
2013,08,21,15,31,24.80
2013,08,21,15,32,24.80
2013,08,21,15,33,24.80
2013,08,21,15,34,24.80
2013,08,21,15,35,24.70
2013,08,21,15,36,24.60
2013,08,21,15,37,24.50
2013,08,21,15,38,24.40
2013,08,21,15,39,24.40
2013,08,21,15,40,24.30
2013,08,21,15,41,24.30
2013,08,21,15,42,24.30
2013,08,21,15,43,24.40
2013,08,21,15,44,24.50
2013,08,21,15,45,24.60
2013,08,21,15,46,24.60
2013,08,21,15,47,24.70
2013,08,21,15,48,24.70
2013,08,21,15,49,24.70
2013,08,21,15,50,24.70
2013,08,21,15,51,24.70
2013,08,21,15,52,24.80
2013,08,21,15,53,24.80
2013,08,21,15,54,24.80
2013,08,21,15,55,24.80
2013,08,21,15,56,24.80
2013,08,21,15,57,24.80
2013,08,21,15,58,24.80
2013,08,21,15,59,24.80
2013,08,21,16,00,24.80
2013,08,21,16,01,24.80
2013,08,21,16,02,24.80
2013,08,21,16,03,24.80
2013,08,21,16,04,24.80
2013,08,21,16,05,24.80
2013,08,21,16,06,24.80
2013,08,21,16,07,24.80
2013,08,21,16,08,24.80
2013,08,21,16,09,24.80
2013,08,21,16,10,24.80
2013,08,21,16,11,24.80
2013,08,21,16,12,24.80
2013,08,21,16,13,24.80
2013,08,21,16,14,24.80
2013,08,21,16,15,24.70
2013,08,21,16,16,24.70
2013,08,21,16,17,24.70
2013,08,21,16,18,24.60
2013,08,21,16,19,24.60
2013,08,21,16,20,24.50
2013,08,21,16,21,24.40
2013,08,21,16,22,24.40
2013,08,21,16,23,24.30
2013,08,21,16,24,24.20
2013,08,21,16,25,24.10
2013,08,21,16,26,24.10
2013,08,21,16,27,24.10
2013,08,21,16,28,24.00
2013,08,21,16,29,24.00
2013,08,21,16,30,23.90
2013,08,21,16,31,23.90
2013,08,21,16,32,23.90
2013,08,21,16,33,24.00
2013,08,21,16,34,24.00
2013,08,21,16,35,24.00
2013,08,21,16,36,23.90
2013,08,21,16,37,23.90
2013,08,21,16,38,23.90
2013,08,21,16,39,23.90
2013,08,21,16,40,23.90
2013,08,21,16,41,24.00
2013,08,21,16,42,24.00
2013,08,21,16,43,24.00
2013,08,21,16,44,23.90
2013,08,21,16,45,23.90
2013,08,21,16,46,23.90
2013,08,21,16,47,23.90
2013,08,21,16,48,23.80
2013,08,21,16,49,23.80
2013,08,21,16,50,23.80
2013,08,21,16,51,23.80
2013,08,21,16,52,23.90
2013,08,21,16,53,23.90
2013,08,21,16,54,23.90
2013,08,21,16,55,23.90
2013,08,21,16,56,23.90
2013,08,21,16,57,23.90
2013,08,21,16,58,23.90
2013,08,21,16,59,23.90
2013,08,21,17,00,23.90
2013,08,21,17,01,23.90
2013,08,21,17,02,23.80
2013,08,21,17,03,23.90
2013,08,21,17,04,23.90
2013,08,21,17,05,23.80
2013,08,21,17,06,23.90
2013,08,21,17,07,23.90
2013,08,21,17,08,23.90
2013,08,21,17,09,23.80
2013,08,21,17,10,23.80
2013,08,21,17,11,23.80
2013,08,21,17,12,23.80
2013,08,21,17,13,23.70
2013,08,21,17,14,23.60
2013,08,21,17,15,23.50
2013,08,21,17,16,23.40
2013,08,21,17,17,23.30
2013,08,21,17,18,23.30
2013,08,21,17,19,23.30
2013,08,21,17,20,23.30
2013,08,21,17,21,23.30
2013,08,21,17,22,23.30
2013,08,21,17,23,23.20
2013,08,21,17,24,23.20
2013,08,21,17,25,23.20